www.pogodaiklimat.ru

Погода и климат >> Архив погоды >> Канада >> Нунавут >> Бейкер Лейк


ПОГОДА в Бейкер Лейк

  • Прогноз погоды в Бейкер Лейк
  • Монитор погоды в Бейкер Лейк

АРХИВ ПОГОДЫ в Бейкер Лейк

Время (UTC), дата Ветер
(напр.,м/с)
 
Видим.   Явления Облачность Т
(С)
Тd
(С)
f
(%)
Тe
(С)
Тes
(С)
Комфортность P
(гПа)
Po
(гПа)
Тmin
(С)
Tmax
(С)
R
(мм)
R24
(мм)
S
(см)
21 12.02 С 6 н/о н/о -30.3 -34.8 65 -44 -44 опасность
обморожения
1021.3 1014.2
00 13.02 СЗ 3 н/о н/о -32.4 -36.6 66 -43 -43 опасность
обморожения
1021.2 1014.1 -33.0 -29.4
03 13.02 З 2 н/о н/о -34.0 -38.2 66 -42 -42 опасность
обморожения
1020.1 1013.0
06 13.02 С 3 н/о н/о -33.4 -37.5 66 -43 -43 опасность
обморожения
1018.3 1011.2 -34.8 -29.4 10
09 13.02 Ю 1 н/о н/о -33.7 -37.9 66 -38 -38 опасность
обморожения
1017.8 1010.7
12 13.02 В 1 н/о н/о -34.3 -38.5 66 -39 -39 опасность
обморожения
1016.4 1009.3 -36.0 -29.4 4
15 13.02 В 2 н/о н/о -34.9 -39.2 65 -42 -42 опасность
обморожения
1015.2 1008.1
18 13.02 В 3 н/о н/о -33.8 -38.1 65 -43 -43 опасность
обморожения
1013.7 1006.6 -36.0 -31.3
21 13.02 ЮВ 3 н/о н/о -31.1 -35.0 68 -41 -41 опасность
обморожения
1013.0 1005.9
00 14.02 ЮВ 3 н/о н/о -31.7 -35.7 68 -42 -42 опасность
обморожения
1012.5 1005.4 -36.0 -30.9
03 14.02 В 3 н/о н/о -32.1 -36.1 67 -42 -42 опасность
обморожения
1011.9 1004.8
06 14.02 В 3 н/о н/о -30.6 -34.5 69 -40 -40 опасность
обморожения
1011.6 1004.5 -36.0 -30.1
09 14.02 ЮВ 3 н/о н/о -28.0 -31.6 71 -37 -37 опасность
обморожения
1011.4 1004.4
12 14.02 В 2 н/о н/о -30.7 -34.7 68 -38 -38 опасность
обморожения
1011.7 1004.7 -33.6 -30.1 4
15 14.02 ЮВ 2 н/о н/о -31.1 -35.0 68 -37 -37 опасность
обморожения
1012.3 1005.3
18 14.02 В 3 н/о н/о -30.1 -34.1 68 -40 -40 опасность
обморожения
1013.2 1006.2 -33.8 -28.0
21 14.02 В 3 н/о н/о -28.5 -32.1 71 -38 -38 опасность
обморожения
1014.6 1007.6
00 15.02 В 4 н/о н/о -30.7 -34.7 68 -42 -42 опасность
обморожения
1016.2 1009.1 -32.4 -28.1
03 15.02 СВ 4 н/о н/о -30.2 -33.9 70 -42 -42 опасность
обморожения
1017.5 1010.4
06 15.02 СВ 5 н/о н/о -27.8 -31.3 72 -39 -39 опасность
обморожения
1018.5 1011.5 -32.4 -27.8
09 15.02 С 4 н/о н/о -25.9 -29.2 74 -36 -36 опасность
обморожения
1020.0 1013.0
12 15.02 СВ 4 н/о н/о -24.7 -27.9 75 -34 -34 опасность
обморожения
1020.9 1013.9 -32.0 -27.8 4
15 15.02 С 3 н/о н/о -24.6 -27.8 75 -33 -33 опасность
обморожения
1021.9 1014.9
18 15.02 С 4 н/о н/о -26.0 -29.4 73 -36 -36 опасность
обморожения
1022.9 1015.9 -32.0 -24.6 0.2
21 15.02 С 5 н/о н/о -26.7 -30.2 72 -39 -39 опасность
обморожения
1023.8 1016.8
00 16.02 С 7 н/о н/о -28.2 -31.9 70 -42 -42 опасность
обморожения
1025.0 1018.0 -28.2 -24.6
03 16.02 С 9 н/о н/о -27.7 -31.2 72 -43 -43 опасность
обморожения
1025.6 1018.6
06 16.02 С 12 н/о н/о -26.4 -29.9 72 -43 -43 опасность
обморожения
1026.5 1019.5 -29.1 -24.6 6
09 16.02 С 10 н/о н/о -26.0 -29.5 72 -41 -41 опасность
обморожения
1027.7 1020.6
12 16.02 С 12 н/о н/о -32.3 -36.6 65 -51 -51 опасность
обморожения
1028.5 1021.4 -32.3 -24.6 4
15 16.02 С 11 н/о н/о -35.5 -40.1 63 -55 -55 опасность
обморожения
1029.2 1022.0
18 16.02 С 15 н/о н/о -34.6 -39.2 63 -56 -56 опасность
обморожения
1029.3 1022.2 -35.6 -26.0
21 16.02 С 14 н/о н/о -33.5 -38.0 64 -54 -54 опасность
обморожения
1030.1 1023.0
00 17.02 С 11 н/о н/о -34.4 -39.0 63 -53 -53 опасность
обморожения
1032.3 1025.1 -35.6 -32.3
03 17.02 С 13 н/о н/о -34.6 -39.3 62 -55 -55 опасность
обморожения
1032.6 1025.3
06 17.02 С 16 н/о н/о -34.3 -39.0 62 -56 -56 опасность
обморожения
1031.9 1024.7 -35.6 -26.0 17
09 17.02 С 12 н/о н/о -34.8 -39.4 63 -55 -55 опасность
обморожения
1033.1 1025.9
12 17.02 С 13 н/о н/о -34.9 -39.5 63 -55 -55 опасность
обморожения
1033.7 1026.4 -35.0 -26.0 4
15 17.02 С 11 н/о н/о -35.1 -39.7 63 -55 -55 опасность
обморожения
1033.6 1026.3
18 17.02 С 8 н/о н/о -34.4 -39.1 62 -51 -51 опасность
обморожения
1033.6 1026.4 -35.3 -33.9
21 17.02 С 7 н/о н/о -33.4 -38.0 63 -49 -49 опасность
обморожения
1033.4 1026.2
00 18.02 С 12 н/о н/о -33.6 -38.1 64 -53 -53 опасность
обморожения
1031.6 1024.4 -35.3 -33.4
03 18.02 СЗ 12 н/о н/о -33.9 -38.5 63 -53 -53 опасность
обморожения
1030.4 1023.2
06 18.02 СЗ 11 н/о н/о -34.6 -39.2 63 -54 -54 опасность
обморожения
1028.8 1021.6 -35.3 -33.4 7
09 18.02 С 9 н/о н/о -34.7 -39.3 63 -53 -53 опасность
обморожения
1028.3 1021.1
12 18.02 СЗ 9 н/о н/о -33.9 -38.4 64 -51 -51 опасность
обморожения
1026.2 1019.0 -35.2 -33.4 4
15 18.02 З 5 н/о н/о -33.3 -38.1 62 -47 -47 опасность
обморожения
1024.6 1017.4
18 18.02 СЗ 7 н/о н/о -33.4 -38.1 62 -49 -49 опасность
обморожения
1022.7 1015.5 -35.2 -32.3
21 18.02 СЗ 3 н/о н/о -31.9 -36.6 63 -42 -42 опасность
обморожения
1021.2 1014.1
00 19.02 СЗ 4 н/о н/о -33.6 -37.8 66 -45 -45 опасность
обморожения
1019.7 1012.6 -35.2 -31.4
03 19.02 С 2 н/о н/о -35.0 -39.3 65 -43 -43 опасность
обморожения
1017.9 1010.8
06 19.02 СЗ 3 н/о н/о -35.5 -39.9 64 -46 -46 опасность
обморожения
1016.9 1009.8 -36.2 -31.4 7
09 19.02 С 6 н/о н/о -34.1 -38.4 65 -49 -49 опасность
обморожения
1015.7 1008.6
12 19.02 н/о н/о -34.7 -39.0 65 1015.2 1008.1 -36.6 -31.4 4
15 19.02 С 4 н/о н/о -36.1 -40.7 62 -49 -49 опасность
обморожения
1014.9 1007.8
18 19.02 СВ 2 н/о н/о -33.7 -38.0 65 -42 -42 опасность
обморожения
1015.2 1008.1 -36.6 -32.8

 

Местоположение метеостанции Бейкер Лейк (Нунавут, Канада): широта 64.32 долгота -96.00 высота над уровнем моря 51 м.

В архиве по умолчанию представлена погода в Бейкер Лейк за последнюю неделю. Архивные данные за месяц целиком и за предыдущие месяцы, начиная с января 2011 года, Вы можете получить, выбрав интересующий диапазон дат из раскрывающегося списка и нажав кнопку "Ввод!".


*Определитесь, кто Вы:
робот инопланетянин человек

Внимание! Время в таблицах - всемирное. Для получения местного времени необходимо прибавить поправку, которая равна -6 ч.

Смотрите также архив погоды в соседних городах и на ближайших метеорологических станциях:

Погода в Бейкер-Лейке (Нунавут, Канада) (4 км)
Погода в Глеичене (Альберта, Канада) (197 км)
Погода в Ранкин-Инлете (Нунавут, Канада) (255 км)
Погода в Ки Лейк 2 (Саскачеван, Канада) (305 км)
Погода на Озере Робертсон (Нунавут, Канада) (316 км)
Погода в Вейджер Бэй (Нунавут, Канада) (353 км)
Погода в Арвиате (Нунавут, Канада) (372 км)
Погода в Арвиате (Нунавут, Канада) (372 км)
Погода в Аэропорту Арвиат (Нунавут, Канада) (372 км)
Погода на Реке Ханбери (Северо-Западные территории, Канада) (454 км)

Пояснения к столбцам:

Ветер - указаны скорость ветра в м/с - средняя за 10 мин, порывы в срок и между сроками (в фигурных скобках) и направление, откуда дует ветер: С - северный, СВ - северо-восточный, В - восточный, ЮВ - юго-восточный, Ю - южный, ЮЗ - юго-западный, З - западный, СЗ - северо-западный.
Видимость - горизонтальная дальность видимости в метрах или километрах. При видимости от 1 до 10 км при отсутствии осадков обычно наблюдается дымка, при ухудшении видимости до 1 км и менее - туман. В сухую погоду видимость может ухудшаться дымом, пылью или мглою.
Явления - указаны атмосферные явления, наблюдавшиеся в срок или в последний час перед сроком; фигурными скобками обозначены явления, наблюдавшиеся между сроками (за 1-3 часа до срока); квадратными скобками обозначены град или гололедные отложения с указанием их диаметра в мм.
Облачность - указаны через наклонную черту общая и нижняя облачность в баллах и высота нижней границы облаков в метрах; квадратными скобками обозначены формы облаков: Ci - перистые, Cs - перисто-слоистые, Cc - перисто-кучевые, Ac - высококучевые, As - высокослоистые, Sc - слоисто-кучевые, Ns - слоисто-дождевые, Cu - кучевые, Cb - кучево-дождевые. Подробнее классификацию облаков см. в Атласе облаков (PDF).
T - Температура воздуха - температура, измеренная на высоте 2 м над землей.
Td - Температура точки росы - температура, при понижении до которой содержащийся в воздухе водяной пар достигнет насыщения.
f - Относительная влажность воздуха - влажноcть воздуха, измеренная на высоте 2 м над землей.
Te - Эффективная температура - температура, которую ощущает одетый по сезону человек в тени. Характеристика душности погоды. При расчете учитывается влияние влажности воздуха и скорости ветра на теплоощущения человека.
Tes - Эффективная температура на солнце - температура, которую ощущает человек, с поправкой на солнечный нагрев. Характеристика знойности погоды. Зависит от высоты солнца над горизонтом, облачности и скорости ветра. Ночью, в пасмурную погоду, а также при ветре 12 м/с и более поправка равна нулю.
P - Атмосферное давление - приведенное к уровню моря атмосферное давление.
Po - Атмосферное давление - измеренное на уровне метеостанции атмосферное давление.
Tmin - Минимальная температура - минимум температуры воздуха на высоте 2 м над землей.
Tmax - Максимальная температура - максимум температуры воздуха на высоте 2 м над землей.
R - Количество осадков - Количество выпавших осадков за период времени, мм. При наведении курсора мыши на число - период времени, за который выпало указанное количество осадков.
R24 - Количество осадков - Количество выпавших осадков за 24 часа, мм.
S - Снежный покров - Высота снежного покрова, см. При наведении курсора мыши на число - состояние снежного покрова и степень покрытия местности в баллах.